Weather Roundup
Issued by NWS

Home | Current Version | Previous Version | Graphics & Text | Print | Product List | Glossary Off
Versions: 1 2 3 4 5 6 7 8 9 10 11 12 13 14 15 16 17 18 19 20 21 22 23 24 25 26 27 28 29 30 31 32 33 34 35 36 37 38 39 40 41 42 43 44 45 46 47 48 49 50

000
NZUS93 KARX 201510
HRRWXR

CURRENT HOURLY OBSERVATIONS ACROSS
MUCH OF THE UPPER MISSISSIPPI VALLEY
NATIONAL WEATHER SERVICE LA CROSSE WI
1000 AM CDT SUN APR 20 2014


...SOUTHEAST MINNESOTA...


CITY           SKY/WX    TMP DP  RH WIND       PRES   REMARKS
ROCHESTER      CLOUDY    54  49  83 S10       30.07R
ROCHESTER/MAYO CLOUDY    55  47  75 S9G16     30.05S
WINONA           N/A    N/A N/A N/A MISG        N/A
AUSTIN         CLOUDY    54  52  94 S5        30.05S
ALBERT LEA     LGT RAIN  55  52  88 S5        30.05R
DODGE CENTER   PTSUNNY   59  52  77 S10       30.05R
PRESTON        RAIN      51  50  93 S5        30.08R
OWATONNA       PTSUNNY   59  52  77 S9        30.04S
FARIBAULT      MOSUNNY   61  52  72 NE3       30.05R
$$

...ELSEWHERE IN MINNESOTA...


CITY           SKY/WX    TMP DP  RH WIND       PRES   REMARKS
MINNEAPOLIS    MOSUNNY   59  47  64 E5        30.04F
INTNL FALLS    SUNNY     44  31  60 W8        30.04F
DULUTH         SUNNY     50  36  58 N3        30.03S
RED WING       MOSUNNY   59  52  77 SE3       30.04R
REDWOOD FALLS  SUNNY     59  44  57 CALM      30.02S
MANKATO        PTSUNNY   57  50  77 NE7       30.04S
WORTHINGTON    MOSUNNY   61  36  39 NE15      30.03F
FAIRMONT       CLOUDY    55  48  76 E5        30.03F
$$

...SOUTHWEST WISCONSIN...


CITY           SKY/WX    TMP DP  RH WIND       PRES   REMARKS
LA CROSSE      RAIN      54  48  80 S7        30.08S
PRAIRIE DU CHI CLOUDY    61  41  47 CALM      30.11R
BOSCOBEL       CLOUDY    66  41  40 SW8       30.11S
LONE ROCK      PTSUNNY   64  41  42 SW5       30.11F
PLATTEVILLE    PTSUNNY   64  40  42 S14       30.13R
FORT MC COY    LGT RAIN  54  51  90 CALM      30.10F
CAMP DOUGLAS   CLOUDY    57  43  58 SE6       30.10F
VIROQUA        CLOUDY    55  46  72 S8        30.11R
WIS DELLS      PTSUNNY   61  38  43 SW6       30.11S
$$

...ELSEWHERE IN WISCONSIN...


CITY           SKY/WX    TMP DP  RH WIND       PRES   REMARKS
MILWAUKEE      PTSUNNY   60  36  40 S13       30.18F
MADISON        PTSUNNY   62  40  44 S12       30.14S
GREEN BAY      CLOUDY    50  42  74 S6        30.13S
EAU CLAIRE     PTSUNNY   61  51  70 VRB7      30.05S
BLACK RVR FLS  CLOUDY    54  53  97 S5        30.07F
MEDFORD        CLOUDY    53  48  83 SW8       30.07S
WAUSAU         CLOUDY    51  46  83 S3        30.07S
WIS RAPIDS     LGT RAIN  50  48  93 S5        30.11F FOG
MARSHFIELD     CLOUDY    55  50  83 S10       30.07F
RICE LAKE      SUNNY     53  51  96 CALM      30.06S
$$

...NORTHEAST IOWA...


CITY           SKY/WX    TMP DP  RH WIND       PRES   REMARKS
WATERLOO       CLOUDY    53  47  79 MISG      30.07S
DUBUQUE        MOSUNNY   63  42  46 S16       30.11F
DECORAH        LGT RAIN  54  50  87 S6        30.09S
MASON CITY     LGT RAIN  53  52  96 SE6       30.07S FOG
CHARLES CITY   LGT RAIN  52  50  93 SE7       30.09F
OELWEIN        CLOUDY   N/A N/A N/A S10       30.11R
$$

...ELSEWHERE IN IOWA...


CITY           SKY/WX    TMP DP  RH WIND       PRES   REMARKS
DES MOINES     MOSUNNY   72  49  44 SW12G20   30.05S
IOWA CITY      SUNNY     67  47  48 S10       30.12F
FORT DODGE     CLOUDY    55  50  82 SE5       30.03S THUNDER
MARSHALLTOWN   CLOUDY    61  48  62 S10       30.06S
CEDAR RAPIDS   MOSUNNY   66  44  45 S14       30.09F
$$

...NORTHERN ILLINOIS...


CITY           SKY/WX    TMP DP  RH WIND       PRES   REMARKS
CHICAGO-OHARE  PTSUNNY   63  34  33 S10       30.20F
DUPAGE         MOSUNNY   62  36  37 S14       30.20F
CHICAGO-MIDWAY PTSUNNY   62  35  36 S12       30.21F
MOLINE         MOSUNNY   70  42  36 SW10      30.12F
ROCKFORD       PTSUNNY   63  39  41 S17       30.18F
STERLING       MOSUNNY   66  43  42 S7        30.15F
PEORIA         MOSUNNY   66  42  41 S14       30.19S
$$

NOTE: "FAIR" INDICATES FEW OR NO CLOUDS BELOW 12,000 FEET WITH NO
SIGNIFICANT WEATHER AND/OR OBSTRUCTIONS TO VISIBILITY. WIND
SPEEDS ARE IN MILES-PER-HOUR.



USA.gov is the U.S. government's official web portal to all federal, state and local government web resources and services.